Terminal Aerodrome Forecast
Issued by NWS Blacksburg, VA

Home | Current Version | Previous Version | Text Only | Print | Product List | Glossary On
Versions: 1 2 3 4 5 6 7 8 9 10 11 12 13 14 15 16 17 18 19 20 21 22 23 24 25 26 27 28 29 30 31 32 33 34 35 36 37 38 39 40 41 42 43 44 45 46
000
FTUS41 KRNK 211140
TAFDAN
TAF
KDAN 211140Z 2112/2212 04003KT 3SM BR SCT004
     FM211300 VRB03KT P6SM SCT250
     FM211500 32006KT P6SM SCT050 SCT250
      TEMPO 2123/2201 28015G25KT 5SM TSRA OVC050CB
     FM220100 29005KT P6SM VCTS BKN060CB
     FM220800 00000KT 3SM BR SCT002=

USA.gov is the U.S. government's official web portal to all federal, state and local government web resources and services.